SCP
0 0 0 0 0 0 0 0 0 0 0 0 0 0 0 0 0 0 0 0 0 0
0 0 0 0 0 0 0 0 0 0 0 0 0 0 0 0 0 0 0 0 0 0
0 0 0 0 0 0 0 0 0 0 0 0 0 0 0 0 0 0 0 0 0 0
0 0 0 0 0 0 0 0 0 0 0 0 0 0 0 0 0 0 0 0 0 0
0 0 0 0 0 0 0 0 0 0 0 0 0 0 0 0 0 0 0 0 0 0
0 0 0 0 0 0 0 0 0 0 0 0 0 0 0 0 0 0 0 0 0 0
0 0 0 0 0 0 0 0 0 0 0 0 0 0 0 0 0 0 0 0 0 0
0 0 0 0 0 0 0 0 0 0 0 0 0 0 0 0 0 0 0 0 0 0
0 0 0 0 0 0 0 0 0 0 0 0 0 0 0 0 0 0 0 0 0 0
0 0 0 0 0 0 0 0 0 0 0 0 0 0 0 0 0 0 0 0 0 0
0 0 0 0 0 0 0 0 0 0 0 0 0 0 0 0 0 0 0 0 0 0
0 0 0 0 0 0 0 0 0 0 0 0 0 0 -0 0 0 0 0 0 0 0
0 0 0 0 0 0 0 0 0 0 0 0 0 -0 -0 0 0 0 0 0 0 0
0 0 0 0 0 0 0 0 0 0 0 0 0 0 -0 -0 0 0 0 0 0 0
Wind_Speed_500mb
81 81 78 75 75 76 76 76 74 73 71 70 70 71 70 71 70 67 62 59 63 71
79 74 72 72 73 75 75 75 74 72 73 72 71 69 69 72 71 66 58 63 62 65
73 72 73 75 77 76 76 76 75 74 72 72 71 70 68 69 69 63 62 61 63 69
78 79 80 80 81 80 79 80 76 76 76 75 74 73 72 69 68 60 60 62 61 63
79 78 79 79 77 73 72 76 70 69 76 80 80 78 77 73 69 62 59 62 66 66
77 80 80 77 77 79 69 72 74 68 67 79 83 83 79 74 65 59 62 66 74 75
80 83 80 78 81 79 78 75 74 70 81 81 89 87 79 64 60 62 61 65 70 72
85 85 81 83 87 87 81 78 73 80 90 89 85 71 60 63 65 63 68 61 67 62
85 83 84 91 93 97 89 80 74 82 79 73 67 62 60 56 63 67 60 61 64 62
84 87 93 96 94 92 84 80 79 76 67 65 66 59 59 60 57 56 54 54 57 59
87 95 95 93 90 84 78 73 70 67 60 67 70 60 57 55 51 46 46 47 46 45
92 94 94 92 84 81 73 69 72 67 64 73 56 50 53 51 48 49 50 38 37 34
90 89 87 79 77 73 68 68 78 66 48 52 53 58 52 47 51 47 39 39 44 20
86 83 77 72 72 68 69 59 60 58 57 57 50 61 47 46 52 42 47 40 35 26
Wind_Direction_500mb
325 322 322 323 322 321 321 322 322 320 318 317 317 317 316 314 312 309 301 298 296 293
325 325 322 322 322 322 322 321 321 320 319 317 316 316 317 314 314 312 303 291 290 292
324 324 323 322 322 320 318 317 316 317 318 318 317 315 314 312 311 308 308 307 298 292
324 325 323 320 318 317 315 315 315 314 315 317 319 318 314 310 311 307 300 299 302 297
327 327 325 323 321 318 313 313 311 310 312 313 313 316 317 312 310 309 307 310 312 306
328 328 326 323 322 321 314 312 311 307 309 313 313 311 313 310 308 309 309 309 312 309
328 327 324 322 323 323 319 311 314 306 310 310 314 312 310 308 303 304 305 304 308 303
327 327 325 325 323 321 321 312 307 305 307 309 313 311 309 304 305 305 303 302 312 302
329 328 327 325 322 320 319 315 308 308 309 310 311 309 307 302 301 299 301 310 307 301
331 329 327 323 322 322 321 316 313 313 314 316 317 313 309 304 300 303 302 306 310 304
332 327 327 327 328 327 326 324 322 320 325 315 315 313 312 310 307 303 315 319 313 305
331 331 333 333 334 332 327 329 329 323 309 317 327 325 320 320 315 323 316 315 325 309
337 336 336 337 333 330 334 318 315 321 334 337 337 341 326 321 320 325 317 326 325 312
340 340 341 337 334 335 329 342 336 339 343 343 342 336 331 326 330 331 326 326 327 317
Wind_Speed_850mb
81 81 78 75 75 76 76 76 74 73 71 70 70 71 70 71 70 67 62 59 63 71
79 74 72 72 73 75 75 75 74 72 73 72 71 69 69 72 71 66 58 63 62 65
73 72 73 75 77 76 76 76 75 74 72 72 71 70 68 69 69 63 62 61 63 69
78 79 80 80 81 80 79 80 76 76 76 75 74 73 72 69 68 60 60 62 61 63
79 78 79 79 77 73 72 76 70 69 76 80 80 78 77 73 69 62 59 62 66 66
77 80 80 77 77 79 69 72 74 68 67 79 83 83 79 74 65 59 62 66 74 75
80 83 80 78 81 79 78 75 74 70 81 81 89 87 79 64 60 62 61 65 70 72
85 85 81 83 87 87 81 78 73 80 90 89 85 71 60 63 65 63 68 61 67 62
85 83 84 91 93 97 89 80 74 82 79 73 67 62 60 56 63 67 60 61 64 62
84 87 93 96 94 92 84 80 79 76 67 65 66 59 59 60 57 56 54 54 57 59
87 95 95 93 90 84 78 73 70 67 60 67 70 60 57 55 51 46 46 47 46 45
92 94 94 92 84 81 73 69 72 67 64 73 56 50 53 51 48 49 50 38 37 34
90 89 87 79 77 73 68 68 78 66 48 52 53 58 52 47 51 47 39 39 44 20
86 83 77 72 72 68 69 59 60 58 57 57 50 61 47 46 52 42 47 40 35 26
Wind_Direction_850mb
325 322 322 323 322 321 321 322 322 320 318 317 317 317 316 314 312 309 301 298 296 293
325 325 322 322 322 322 322 321 321 320 319 317 316 316 317 314 314 312 303 291 290 292
324 324 323 322 322 320 318 317 316 317 318 318 317 315 314 312 311 308 308 307 298 292
324 325 323 320 318 317 315 315 315 314 315 317 319 318 314 310 311 307 300 299 302 297
327 327 325 323 321 318 313 313 311 310 312 313 313 316 317 312 310 309 307 310 312 306
328 328 326 323 322 321 314 312 311 307 309 313 313 311 313 310 308 309 309 309 312 309
328 327 324 322 323 323 319 311 314 306 310 310 314 312 310 308 303 304 305 304 308 303
327 327 325 325 323 321 321 312 307 305 307 309 313 311 309 304 305 305 303 302 312 302
329 328 327 325 322 320 319 315 308 308 309 310 311 309 307 302 301 299 301 310 307 301
331 329 327 323 322 322 321 316 313 313 314 316 317 313 309 304 300 303 302 306 310 304
332 327 327 327 328 327 326 324 322 320 325 315 315 313 312 310 307 303 315 319 313 305
331 331 333 333 334 332 327 329 329 323 309 317 327 325 320 320 315 323 316 315 325 309
337 336 336 337 333 330 334 318 315 321 334 337 337 341 326 321 320 325 317 326 325 312
340 340 341 337 334 335 329 342 336 339 343 343 342 336 331 326 330 331 326 326 327 317